Miscellaneous Local Product
Issued by NWS North Platte, NE

Home | Current Version | Previous Version | Text Only | Print | Product List | Glossary On
Versions: 1 2 3 4 5 6 7 8 9 10 11 12 13 14 15 16 17 18 19 20 21 22 23 24 25 26 27 28 29 30 31 32 33 34 35 36 37 38 39 40 41 42 43 44 45 46 47 48 49 50
000
AXUS43 KLBF 162010
MISLBF


WESTERN AND NORTH CENTRAL NEBRASKA HOURLY WEATHER ROUNDUP
NATIONAL WEATHER SERVICE NORTH PLATTE NE
200 PM CST MON JAN 16 2017

NOTE: "FAIR" INDICATES FEW OR NO CLOUDS BELOW 12,000 FEET WITH NO
SIGNIFICANT WEATHER AND/OR OBSTRUCTIONS TO VISIBILITY.

NOTE: STATIONS NOT REPORTING VARIABLES SUCH AS SKY/WEATHER OR
PRESSURE ARE PROVIDED BY RAWS AND APRS NETWORKS AND ARE NOT UNDER
NATIONAL WEATHER SERVICE QUALITY CONTROL.

...OBSERVATIONS IN AND NEAR THE EASTERN PANHANDLE OF NEBRASKA...

CITY           SKY/WX    TMP DP  RH WIND       PRES   REMARKS
PINE RIDGE     SUNNY     29  21  72 SW8       30.07F WCI  21
CHADRON        SUNNY     32  18  56 NW14      30.08F WCI  22
ALLIANCE       CLOUDY    37  15  40 N17       30.02F WCI  27
SIDNEY         CLOUDY    35  21  56 N21G28    30.02F WCI  24
CRESCENT LAKE    N/A     35  21  57 N13G20      N/A  WCI  26
$$

...OBSERVATIONS IN NORTHERN NEBRASKA AND FAR SOUTHERN SOUTH DAKOTA...

CITY           SKY/WX    TMP DP  RH WIND       PRES   REMARKS
WINNER         FAIR      29  14  53 NW17      30.04F WCI  17
VALENTINE      CLOUDY    35  13  40 NW15      30.02F WCI  25
THEDFORD       CLOUDY    36  30  79 NW15      29.98F WCI  26
AINSWORTH      CLOUDY    34  27  74 N12       29.99F WCI  26
O`NEILL        CLOUDY    30  27  90 N8        29.99F WCI  22
ORD            FRZ RAIN  32  29  88 N14G25    29.94F FOG     WCI  22
BROKEN BOW     LGT SNOW  32  30  92 N21       29.94F FOG     WCI  20
VALENTINE NWR    N/A     35  22  58 NW13G20     N/A  WCI  26
BUTTE            N/A     30  22  72 NW9         N/A  WCI  22
HALSEY           N/A     50  29  44 NW6G13      N/A
SARGENT          N/A     31  22  69 MISG        N/A
CHAMBERS         N/A     30  28  90 S3          N/A
EWING            N/A     30  29  95 N6          N/A  WCI  24
$$

...OBSERVATIONS IN SOUTHWEST NEBRASKA AND FAR NORTHEAST COLORADO...

CITY           SKY/WX    TMP DP  RH WIND       PRES   REMARKS
WRAY           LGT SNOW  34  32  93 N20G25    30.00R WCI  22
HOLYOKE        FAIR      37  28  70 NW20G29   30.00S WCI  27
IMPERIAL       CLOUDY    35  28  75 N20       29.97S WCI  24
OGALLALA       CLOUDY    37  31  80 N10       30.00S WCI  29
NORTH PLATTE   CLOUDY    35  31  85 NW9       29.97S WCI  28
MCCOOK         MIX PCPN  35  34  96 N12       29.94S FOG     WCI  27
LEXINGTON      CLOUDY    34  32  93 N16       29.93S WCI  23
STAPLETON        N/A     33  30  90 CALM        N/A
GOTHENBURG       N/A     33  30  88 NW10        N/A  WCI  25
CALLAWAY         N/A     31  30  95 CALM        N/A
$$

...OBSERVATIONS IN CENTRAL LINCOLN COUNTY AREA...

CITY           SKY/WX    TMP DP  RH WIND       PRES   REMARKS
N.P. AIRPORT   CLOUDY    35  31  85 NW9       29.97S WCI  28
N.P. DOWNTOWN    N/A     33  33 100 NW5         N/A  WCI  28
N.P. SOUTHEAST   N/A     34  31  88 N5G12       N/A  WCI  30
N.P. HILLCREST   N/A     34  30  86 N9          N/A  WCI  27
$$

...SOME OBSERVATIONS FROM AROUND THE REGION...

CITY           SKY/WX    TMP DP  RH WIND       PRES   REMARKS
LARAMIE        CLOUDY    24  17  74 NE5       30.05F WCI  18
CHEYENNE       CLOUDY    34   3  27 N16G22    30.05F WCI  24
DENVER         CLOUDY    33  26  75 NW8       30.06F WCI  26
AKRON          LGT SNOW  31  26  82 N20       30.02F WCI  19
SCOTTSBLUFF    CLOUDY    40  17  39 NW12      30.06F WCI  33
RAPID CITY     SUNNY     34  20  56 N18       30.04F WCI  23
BISMARCK       SUNNY     26  15  63 NW7       30.05F WCI  18
PIERRE         CLOUDY    22  13  68 NW13      30.05F WCI  10
SIOUX FALLS    FRZ RAIN  31  24  75 N6        29.98F WCI  25
OMAHA          LGT RAIN  34  31  88 N8        29.90F FOG     WCI  27
GRAND ISLAND   FRZ RAIN N/A N/A N/A N7        29.91S FOG
KANSAS CITY    CLOUDY    48  44  86 E6        29.82F FOG
WICHITA        CLOUDY    39  37  92 SW12      29.85S WCI  32
OKLAHOMA CITY  PTSUNNY   48  36  63 W16       29.93S
DALLAS         MOSUNNY   64  48  56 W10       29.97F
AMARILLO       PTSUNNY   41  34  75 NW29      29.96F
DODGE CITY     CLOUDY    33  32  96 NW12      29.89S FOG     WCI  24
HAYS           CLOUDY    33  31  92 N14       29.88S WCI  23
GOODLAND       CLOUDY    33  32  96 N17       29.93S FOG     WCI  22
$$




USA.gov is the U.S. government's official web portal to all federal, state and local government web resources and services.